Time,TemperatureF,DewpointF,PressureIn,WindDirection,WindDirectionDegrees,WindSpeedMPH,WindSpeedGustMPH,Humidity,HourlyPrecipIn,Conditions,Clouds,dailyrainin,SoftwareType,DateUTC
2013-09-14 00:01:00,70.5,62.5,29.40,ENE,67,0.0,0.0,76,0.00,,,0.00,WUHU21623XXSP,2013-09-14 04:01:00,
2013-09-14 00:02:00,70.5,62.5,29.40,ENE,67,0.0,0.0,76,0.00,,,0.00,WUHU21623XXSP,2013-09-14 04:02:00,
2013-09-14 00:07:00,70.5,62.2,29.40,ENE,67,0.0,0.0,75,0.00,,,0.00,WUHU21623XXSP,2013-09-14 04:07:00,
2013-09-14 00:12:00,70.7,62.3,29.40,East,90,0.0,0.0,75,0.00,,,0.00,WUHU21623XXSP,2013-09-14 04:12:00,
2013-09-14 00:18:00,70.7,62.0,29.40,East,90,0.0,0.0,74,0.00,,,0.00,WUHU21623XXSP,2013-09-14 04:18:00,
2013-09-14 00:23:00,70.5,61.8,29.40,East,90,0.0,0.0,74,0.00,,,0.00,WUHU21623XXSP,2013-09-14 04:23:00,
2013-09-14 00:28:00,70.5,61.8,29.40,East,90,0.0,0.0,74,0.00,,,0.00,WUHU21623XXSP,2013-09-14 04:28:00,
2013-09-14 00:33:00,70.3,61.6,29.41,East,90,0.0,0.0,74,0.00,,,0.00,WUHU21623XXSP,2013-09-14 04:33:00,
2013-09-14 00:38:00,70.2,61.4,29.41,East,90,0.0,0.0,74,0.00,,,0.00,WUHU21623XXSP,2013-09-14 04:38:00,
2013-09-14 00:43:00,70.0,60.9,29.41,SSE,157,0.0,0.0,73,0.00,,,0.00,WUHU21623XXSP,2013-09-14 04:43:00,
2013-09-14 00:48:00,69.6,60.5,29.41,SSE,157,0.0,0.0,73,0.00,,,0.00,WUHU21623XXSP,2013-09-14 04:48:00,
2013-09-14 00:53:00,69.6,60.5,29.41,SSE,157,0.0,0.0,73,0.00,,,0.00,WUHU21623XXSP,2013-09-14 04:53:00,
2013-09-14 00:58:00,69.4,60.4,29.41,SSE,157,0.0,0.0,73,0.00,,,0.00,WUHU21623XXSP,2013-09-14 04:58:00,
2013-09-14 01:03:00,69.1,60.4,29.41,South,180,0.0,0.0,74,0.00,,,0.00,WUHU21623XXSP,2013-09-14 05:03:00,
2013-09-14 01:08:00,68.7,60.1,29.40,South,180,0.0,0.0,74,0.00,,,0.00,WUHU21623XXSP,2013-09-14 05:08:00,
2013-09-14 01:13:00,68.7,59.7,29.41,South,180,0.0,0.0,73,0.00,,,0.00,WUHU21623XXSP,2013-09-14 05:13:00,
2013-09-14 01:18:00,68.4,59.4,29.40,South,180,0.0,0.0,73,0.00,,,0.00,WUHU21623XXSP,2013-09-14 05:18:00,
2013-09-14 01:23:00,68.4,59.4,29.40,South,180,0.0,0.0,73,0.00,,,0.00,WUHU21623XXSP,2013-09-14 05:23:00,
2013-09-14 01:29:00,68.2,59.2,29.40,South,180,0.0,0.0,73,0.00,,,0.00,WUHU21623XXSP,2013-09-14 05:29:00,
2013-09-14 01:34:00,67.8,59.3,29.40,South,180,0.0,0.0,74,0.00,,,0.00,WUHU21623XXSP,2013-09-14 05:34:00,
2013-09-14 01:39:00,67.6,59.1,29.40,South,180,0.0,0.0,74,0.00,,,0.00,WUHU21623XXSP,2013-09-14 05:39:00,
2013-09-14 01:44:00,67.3,58.7,29.40,South,180,0.0,0.0,74,0.00,,,0.00,WUHU21623XXSP,2013-09-14 05:44:00,
2013-09-14 01:49:00,67.3,58.7,29.40,South,180,0.0,0.0,74,0.00,,,0.00,WUHU21623XXSP,2013-09-14 05:49:00,
2013-09-14 01:54:00,66.9,58.7,29.40,South,180,0.0,0.0,75,0.00,,,0.00,WUHU21623XXSP,2013-09-14 05:54:00,
2013-09-14 01:59:00,66.9,58.7,29.40,South,180,0.0,0.0,75,0.00,,,0.00,WUHU21623XXSP,2013-09-14 05:59:00,
2013-09-14 02:04:00,66.7,58.5,29.41,South,180,0.0,0.0,75,0.00,,,0.00,WUHU21623XXSP,2013-09-14 06:04:00,
2013-09-14 02:09:00,66.6,58.0,29.41,South,180,0.0,0.0,74,0.00,,,0.00,WUHU21623XXSP,2013-09-14 06:09:00,
2013-09-14 02:14:00,66.4,58.2,29.41,South,180,0.0,0.0,75,0.00,,,0.00,WUHU21623XXSP,2013-09-14 06:14:00,
2013-09-14 02:19:00,66.0,57.5,29.41,South,180,0.0,0.0,74,0.00,,,0.00,WUHU21623XXSP,2013-09-14 06:19:00,
2013-09-14 02:24:00,66.0,57.5,29.41,South,180,0.0,0.0,74,0.00,,,0.00,WUHU21623XXSP,2013-09-14 06:24:00,
2013-09-14 02:29:00,66.0,57.5,29.41,South,180,0.0,0.0,74,0.00,,,0.00,WUHU21623XXSP,2013-09-14 06:29:00,
2013-09-14 02:34:00,66.0,57.5,29.41,South,180,0.0,0.0,74,0.00,,,0.00,WUHU21623XXSP,2013-09-14 06:34:00,
2013-09-14 02:39:00,65.8,57.3,29.41,South,180,0.0,0.0,74,0.00,,,0.00,WUHU21623XXSP,2013-09-14 06:39:00,
2013-09-14 02:44:00,65.7,57.1,29.42,South,180,0.0,0.0,74,0.00,,,0.00,WUHU21623XXSP,2013-09-14 06:44:00,
2013-09-14 02:49:00,65.5,56.9,29.42,South,180,0.0,0.0,74,0.00,,,0.00,WUHU21623XXSP,2013-09-14 06:49:00,
2013-09-14 02:54:00,65.3,57.1,29.41,South,180,0.0,0.0,75,0.00,,,0.00,WUHU21623XXSP,2013-09-14 06:54:00,
2013-09-14 02:59:00,65.1,57.0,29.41,South,180,0.0,0.0,75,0.00,,,0.00,WUHU21623XXSP,2013-09-14 06:59:00,
2013-09-14 03:04:00,65.1,57.0,29.41,South,180,0.0,0.0,75,0.00,,,0.00,WUHU21623XXSP,2013-09-14 07:04:00,
2013-09-14 03:09:00,64.9,56.8,29.42,South,180,0.0,0.0,75,0.00,,,0.00,WUHU21623XXSP,2013-09-14 07:09:00,
2013-09-14 03:14:00,64.8,56.6,29.42,South,180,0.0,0.0,75,0.00,,,0.00,WUHU21623XXSP,2013-09-14 07:14:00,
2013-09-14 03:19:00,64.6,56.5,29.41,South,180,0.0,0.0,75,0.00,,,0.00,WUHU21623XXSP,2013-09-14 07:19:00,
2013-09-14 03:24:00,64.6,56.5,29.41,South,180,0.0,0.0,75,0.00,,,0.00,WUHU21623XXSP,2013-09-14 07:24:00,
2013-09-14 03:29:00,64.6,56.1,29.42,South,180,0.0,0.0,74,0.00,,,0.00,WUHU21623XXSP,2013-09-14 07:29:00,
2013-09-14 03:34:00,64.6,56.1,29.42,South,180,0.0,0.0,74,0.00,,,0.00,WUHU21623XXSP,2013-09-14 07:34:00,
2013-09-14 03:39:00,64.2,55.8,29.42,South,180,0.0,0.0,74,0.00,,,0.00,WUHU21623XXSP,2013-09-14 07:39:00,
2013-09-14 03:44:00,64.2,55.4,29.42,South,180,0.0,0.0,73,0.00,,,0.00,WUHU21623XXSP,2013-09-14 07:44:00,
2013-09-14 03:49:00,64.2,55.4,29.42,South,180,0.0,0.0,73,0.00,,,0.00,WUHU21623XXSP,2013-09-14 07:49:00,
2013-09-14 03:54:00,64.2,55.4,29.42,South,180,0.0,0.0,73,0.00,,,0.00,WUHU21623XXSP,2013-09-14 07:54:00,
2013-09-14 03:59:00,64.2,55.4,29.42,South,180,0.0,0.0,73,0.00,,,0.00,WUHU21623XXSP,2013-09-14 07:59:00,
2013-09-14 04:04:00,64.0,55.2,29.42,South,180,0.0,0.0,73,0.00,,,0.00,WUHU21623XXSP,2013-09-14 08:04:00,
2013-09-14 04:10:00,64.0,55.2,29.42,South,180,0.0,0.0,73,0.00,,,0.00,WUHU21623XXSP,2013-09-14 08:10:00,
2013-09-14 04:15:00,63.9,55.0,29.42,South,180,0.0,0.0,73,0.00,,,0.00,WUHU21623XXSP,2013-09-14 08:15:00,
2013-09-14 04:20:00,63.7,54.9,29.42,South,180,0.0,0.0,73,0.00,,,0.00,WUHU21623XXSP,2013-09-14 08:20:00,
2013-09-14 04:25:00,63.7,54.9,29.42,South,180,0.0,0.0,73,0.00,,,0.00,WUHU21623XXSP,2013-09-14 08:25:00,
2013-09-14 04:30:00,63.5,54.7,29.42,SSE,157,0.0,0.0,73,0.00,,,0.00,WUHU21623XXSP,2013-09-14 08:30:00,
2013-09-14 04:35:00,63.3,54.5,29.42,SSE,157,0.0,0.0,73,0.00,,,0.00,WUHU21623XXSP,2013-09-14 08:35:00,
2013-09-14 04:40:00,63.1,54.3,29.42,SSE,157,0.0,0.0,73,0.00,,,0.00,WUHU21623XXSP,2013-09-14 08:40:00,
2013-09-14 04:45:00,63.1,54.7,29.42,SSE,157,0.0,0.0,74,0.00,,,0.00,WUHU21623XXSP,2013-09-14 08:45:00,
2013-09-14 04:50:00,63.1,54.7,29.43,SSE,157,0.0,0.0,74,0.00,,,0.00,WUHU21623XXSP,2013-09-14 08:50:00,
2013-09-14 04:55:00,63.1,54.7,29.43,SSE,157,0.0,0.0,74,0.00,,,0.00,WUHU21623XXSP,2013-09-14 08:55:00,
2013-09-14 05:00:00,63.3,54.5,29.43,SSE,157,0.0,0.0,73,0.00,,,0.00,WUHU21623XXSP,2013-09-14 09:00:00,
2013-09-14 05:05:00,63.3,54.5,29.43,SSE,157,0.0,0.0,73,0.00,,,0.00,WUHU21623XXSP,2013-09-14 09:05:00,
2013-09-14 05:10:00,63.3,54.5,29.43,SSE,157,0.0,0.0,73,0.00,,,0.00,WUHU21623XXSP,2013-09-14 09:10:00,
2013-09-14 05:16:00,63.3,54.5,29.43,SSE,157,0.0,0.0,73,0.00,,,0.00,WUHU21623XXSP,2013-09-14 09:16:00,
2013-09-14 05:21:00,63.1,54.7,29.43,SSE,157,0.0,0.0,74,0.00,,,0.00,WUHU21623XXSP,2013-09-14 09:21:00,
2013-09-14 05:26:00,62.8,54.3,29.43,SSE,157,0.0,0.0,74,0.00,,,0.00,WUHU21623XXSP,2013-09-14 09:26:00,
2013-09-14 05:31:00,62.8,54.3,29.43,SSE,157,0.0,0.0,74,0.00,,,0.00,WUHU21623XXSP,2013-09-14 09:31:00,
2013-09-14 05:36:00,62.6,54.5,29.44,SSE,157,0.0,0.0,75,0.00,,,0.00,WUHU21623XXSP,2013-09-14 09:36:00,
2013-09-14 05:41:00,62.6,54.5,29.44,SSE,157,0.0,0.0,75,0.00,,,0.00,WUHU21623XXSP,2013-09-14 09:41:00,
2013-09-14 05:46:00,62.4,54.3,29.44,SSE,157,0.0,0.0,75,0.00,,,0.00,WUHU21623XXSP,2013-09-14 09:46:00,
2013-09-14 05:51:00,62.4,54.3,29.44,SSE,157,0.0,0.0,75,0.00,,,0.00,WUHU21623XXSP,2013-09-14 09:51:00,
2013-09-14 05:56:00,62.4,54.3,29.44,SSE,157,0.0,0.0,75,0.00,,,0.00,WUHU21623XXSP,2013-09-14 09:56:00,
2013-09-14 06:01:00,62.2,54.2,29.44,SSE,157,0.0,0.0,75,0.00,,,0.00,WUHU21623XXSP,2013-09-14 10:01:00,
2013-09-14 06:06:00,62.1,54.0,29.44,SSE,157,0.0,0.0,75,0.00,,,0.00,WUHU21623XXSP,2013-09-14 10:06:00,
2013-09-14 06:11:00,61.9,53.9,29.45,SSE,157,0.0,0.0,75,0.00,,,0.00,WUHU21623XXSP,2013-09-14 10:11:00,
2013-09-14 06:16:00,61.9,54.2,29.45,SSE,157,0.0,0.0,76,0.00,,,0.00,WUHU21623XXSP,2013-09-14 10:16:00,
2013-09-14 06:21:00,61.5,53.9,29.45,SSE,157,0.0,0.0,76,0.00,,,0.00,WUHU21623XXSP,2013-09-14 10:21:00,
2013-09-14 06:26:00,61.5,53.9,29.45,SSE,157,0.0,0.0,76,0.00,,,0.00,WUHU21623XXSP,2013-09-14 10:26:00,
2013-09-14 06:31:00,61.5,53.9,29.45,SSE,157,0.0,0.0,76,0.00,,,0.00,WUHU21623XXSP,2013-09-14 10:31:00,
2013-09-14 06:36:00,61.5,53.9,29.45,SSE,157,0.0,0.0,76,0.00,,,0.00,WUHU21623XXSP,2013-09-14 10:36:00,
2013-09-14 06:41:00,61.3,54.1,29.46,SSE,157,0.0,0.0,77,0.00,,,0.00,WUHU21623XXSP,2013-09-14 10:41:00,
2013-09-14 06:46:00,61.2,53.6,29.46,SSE,157,0.0,0.0,76,0.00,,,0.00,WUHU21623XXSP,2013-09-14 10:46:00,
2013-09-14 06:51:00,61.0,53.4,29.46,SSE,157,0.0,0.0,76,0.00,,,0.00,WUHU21623XXSP,2013-09-14 10:51:00,
2013-09-14 06:56:00,61.0,53.4,29.46,SSE,157,0.0,0.0,76,0.00,,,0.00,WUHU21623XXSP,2013-09-14 10:56:00,
2013-09-14 07:01:00,61.0,53.4,29.47,SSE,157,0.0,0.0,76,0.00,,,0.00,WUHU21623XXSP,2013-09-14 11:01:00,
2013-09-14 07:06:00,60.8,53.2,29.47,SSE,157,0.0,0.0,76,0.00,,,0.00,WUHU21623XXSP,2013-09-14 11:06:00,
2013-09-14 07:11:00,60.6,53.1,29.47,SSE,157,0.0,0.0,76,0.00,,,0.00,WUHU21623XXSP,2013-09-14 11:11:00,
2013-09-14 07:16:00,60.4,53.2,29.47,SSE,157,0.0,0.0,77,0.00,,,0.00,WUHU21623XXSP,2013-09-14 11:16:00,
2013-09-14 07:21:00,60.4,53.2,29.47,SSE,157,0.0,0.0,77,0.00,,,0.00,WUHU21623XXSP,2013-09-14 11:21:00,
2013-09-14 07:26:00,60.4,53.2,29.47,SSE,157,0.0,0.0,77,0.00,,,0.00,WUHU21623XXSP,2013-09-14 11:26:00,
2013-09-14 07:31:00,60.3,53.1,29.48,SSE,157,0.0,0.0,77,0.00,,,0.00,WUHU21623XXSP,2013-09-14 11:31:00,
2013-09-14 07:36:00,60.4,53.2,29.48,SSE,157,0.0,0.0,77,0.00,,,0.00,WUHU21623XXSP,2013-09-14 11:36:00,
2013-09-14 07:41:00,60.4,53.2,29.48,SSE,157,0.0,0.0,77,0.00,,,0.00,WUHU21623XXSP,2013-09-14 11:41:00,
2013-09-14 07:46:00,60.4,53.2,29.48,SSE,157,0.0,0.0,77,0.00,,,0.00,WUHU21623XXSP,2013-09-14 11:46:00,
2013-09-14 07:51:00,60.4,53.2,29.48,SSE,157,0.0,0.0,77,0.00,,,0.00,WUHU21623XXSP,2013-09-14 11:51:00,
2013-09-14 07:56:00,61.0,53.4,29.48,SSE,157,0.0,0.0,76,0.00,,,0.00,WUHU21623XXSP,2013-09-14 11:56:00,
2013-09-14 08:01:00,61.5,54.2,29.48,SSE,157,0.0,0.0,77,0.00,,,0.00,WUHU21623XXSP,2013-09-14 12:01:00,
2013-09-14 08:06:00,63.3,55.6,29.49,SE,135,0.0,0.0,76,0.00,,,0.00,WUHU21623XXSP,2013-09-14 12:06:00,
2013-09-14 08:11:00,65.3,56.8,29.49,SSE,157,0.0,0.0,74,0.00,,,0.00,WUHU21623XXSP,2013-09-14 12:11:00,
2013-09-14 08:16:00,67.6,57.6,29.49,SSE,157,0.0,0.0,70,0.00,,,0.00,WUHU21623XXSP,2013-09-14 12:16:00,
2013-09-14 08:21:00,69.1,58.0,29.49,SSE,157,0.0,0.0,68,0.00,,,0.00,WUHU21623XXSP,2013-09-14 12:21:00,
2013-09-14 08:26:00,70.3,58.4,29.49,SSE,157,0.0,0.0,66,0.00,,,0.00,WUHU21623XXSP,2013-09-14 12:26:00,
2013-09-14 08:31:00,71.4,58.1,29.49,SSE,157,0.0,0.0,63,0.00,,,0.00,WUHU21623XXSP,2013-09-14 12:31:00,
2013-09-14 08:36:00,72.1,57.9,29.50,SSE,157,0.0,0.0,61,0.00,,,0.00,WUHU21623XXSP,2013-09-14 12:36:00,
2013-09-14 08:41:00,72.3,57.7,29.50,ESE,112,0.0,0.0,60,0.00,,,0.00,WUHU21623XXSP,2013-09-14 12:41:00,
2013-09-14 08:46:00,72.7,57.5,29.50,SE,135,0.0,0.0,59,0.00,,,0.00,WUHU21623XXSP,2013-09-14 12:46:00,
2013-09-14 08:51:00,73.6,57.8,29.50,SE,135,0.0,2.7,58,0.00,,,0.00,WUHU21623XXSP,2013-09-14 12:51:00,
2013-09-14 08:56:00,73.2,57.5,29.50,NE,45,0.0,2.7,58,0.00,,,0.00,WUHU21623XXSP,2013-09-14 12:56:00,
2013-09-14 09:01:00,73.6,57.3,29.50,NE,45,0.0,0.0,57,0.00,,,0.00,WUHU21623XXSP,2013-09-14 13:01:00,
2013-09-14 09:06:00,74.1,57.8,29.50,NE,45,0.0,0.0,57,0.00,,,0.00,WUHU21623XXSP,2013-09-14 13:06:00,
2013-09-14 09:11:00,75.0,58.2,29.50,NE,45,0.0,0.0,56,0.00,,,0.00,WUHU21623XXSP,2013-09-14 13:11:00,
2013-09-14 09:16:00,75.9,58.6,29.51,NE,45,0.0,0.0,55,0.00,,,0.00,WUHU21623XXSP,2013-09-14 13:16:00,
2013-09-14 09:22:00,76.5,58.5,29.51,NE,45,0.0,1.6,54,0.00,,,0.00,WUHU21623XXSP,2013-09-14 13:22:00,
2013-09-14 09:27:00,76.6,58.7,29.51,NE,45,0.0,1.6,54,0.00,,,0.00,WUHU21623XXSP,2013-09-14 13:27:00,
2013-09-14 09:32:00,77.2,58.7,29.51,SE,135,0.0,0.0,53,0.00,,,0.00,WUHU21623XXSP,2013-09-14 13:32:00,
2013-09-14 09:37:00,77.0,58.5,29.52,South,180,0.0,4.7,53,0.00,,,0.00,WUHU21623XXSP,2013-09-14 13:37:00,
2013-09-14 09:42:00,78.1,59.5,29.52,South,180,0.0,4.7,53,0.00,,,0.00,WUHU21623XXSP,2013-09-14 13:42:00,
2013-09-14 09:47:00,78.4,58.8,29.52,SSE,157,0.0,1.3,51,0.00,,,0.00,WUHU21623XXSP,2013-09-14 13:47:00,
2013-09-14 09:52:00,78.1,58.5,29.52,ESE,112,0.0,2.2,51,0.00,,,0.00,WUHU21623XXSP,2013-09-14 13:52:00,
2013-09-14 09:57:00,79.0,58.8,29.52,ESE,112,0.0,2.2,50,0.00,,,0.00,WUHU21623XXSP,2013-09-14 13:57:00,
2013-09-14 10:02:00,79.7,59.5,29.52,ESE,112,0.0,0.0,50,0.00,,,0.00,WUHU21623XXSP,2013-09-14 14:02:00,
2013-09-14 10:07:00,80.1,59.2,29.52,SSE,157,0.0,0.0,49,0.00,,,0.00,WUHU21623XXSP,2013-09-14 14:07:00,
2013-09-14 10:12:00,80.1,59.2,29.53,ESE,112,0.0,4.0,49,0.00,,,0.00,WUHU21623XXSP,2013-09-14 14:12:00,
2013-09-14 10:17:00,79.9,59.0,29.53,East,90,0.0,4.0,49,0.00,,,0.00,WUHU21623XXSP,2013-09-14 14:17:00,
2013-09-14 10:22:00,80.2,59.3,29.53,East,90,0.0,0.0,49,0.00,,,0.00,WUHU21623XXSP,2013-09-14 14:22:00,
2013-09-14 10:27:00,80.6,59.6,29.53,ESE,112,0.0,4.5,49,0.00,,,0.00,WUHU21623XXSP,2013-09-14 14:27:00,
2013-09-14 10:32:00,81.1,59.5,29.53,NNW,337,0.0,4.5,48,0.00,,,0.00,WUHU21623XXSP,2013-09-14 14:32:00,
2013-09-14 10:37:00,81.5,59.8,29.53,ESE,112,0.0,3.8,48,0.00,,,0.00,WUHU21623XXSP,2013-09-14 14:37:00,
2013-09-14 10:42:00,81.7,59.4,29.53,SSE,157,0.0,3.8,47,0.00,,,0.00,WUHU21623XXSP,2013-09-14 14:42:00,
2013-09-14 10:47:00,81.7,60.0,29.53,ENE,67,0.0,3.4,48,0.00,,,0.00,WUHU21623XXSP,2013-09-14 14:47:00,
2013-09-14 10:52:00,82.8,60.4,29.53,ENE,67,0.0,0.0,47,0.00,,,0.00,WUHU21623XXSP,2013-09-14 14:52:00,
2013-09-14 10:57:00,82.9,60.6,29.53,SE,135,0.0,0.0,47,0.00,,,0.00,WUHU21623XXSP,2013-09-14 14:57:00,
2013-09-14 11:02:00,84.4,61.3,29.53,SE,135,0.0,0.0,46,0.00,,,0.00,WUHU21623XXSP,2013-09-14 15:02:00,
2013-09-14 11:07:00,85.3,61.5,29.53,SE,135,0.0,0.0,45,0.00,,,0.00,WUHU21623XXSP,2013-09-14 15:07:00,
2013-09-14 11:12:00,85.8,61.4,29.53,SE,135,0.0,0.0,44,0.00,,,0.00,WUHU21623XXSP,2013-09-14 15:12:00,
2013-09-14 11:17:00,86.2,61.7,29.53,East,90,0.0,0.0,44,0.00,,,0.00,WUHU21623XXSP,2013-09-14 15:17:00,
2013-09-14 11:22:00,86.2,61.7,29.53,ESE,112,2.5,4.9,44,0.00,,,0.00,WUHU21623XXSP,2013-09-14 15:22:00,
2013-09-14 11:27:00,86.4,61.8,29.53,ESE,112,0.0,4.9,44,0.00,,,0.00,WUHU21623XXSP,2013-09-14 15:27:00,
2013-09-14 11:32:00,87.1,61.9,29.53,ESE,112,0.0,0.0,43,0.00,,,0.00,WUHU21623XXSP,2013-09-14 15:32:00,
2013-09-14 11:37:00,87.6,62.3,29.53,ENE,67,0.0,0.0,43,0.00,,,0.00,WUHU21623XXSP,2013-09-14 15:37:00,
2013-09-14 11:42:00,87.1,61.9,29.53,ENE,67,0.0,0.0,43,0.00,,,0.00,WUHU21623XXSP,2013-09-14 15:42:00,
2013-09-14 11:47:00,87.3,62.7,29.53,SE,135,0.0,0.0,44,0.00,,,0.00,WUHU21623XXSP,2013-09-14 15:47:00,
2013-09-14 11:52:00,87.4,62.2,29.53,ESE,112,0.0,0.0,43,0.00,,,0.00,WUHU21623XXSP,2013-09-14 15:52:00,
2013-09-14 11:57:00,88.3,62.9,29.53,East,90,0.0,0.0,43,0.00,,,0.00,WUHU21623XXSP,2013-09-14 15:57:00,
2013-09-14 12:02:00,88.2,62.8,29.53,ESE,112,0.0,0.0,43,0.00,,,0.00,WUHU21623XXSP,2013-09-14 16:02:00,
2013-09-14 12:07:00,89.4,63.2,29.53,ESE,112,0.0,0.0,42,0.00,,,0.00,WUHU21623XXSP,2013-09-14 16:07:00,
2013-09-14 12:12:00,90.7,63.7,29.54,ESE,112,0.0,0.0,41,0.00,,,0.00,WUHU21623XXSP,2013-09-14 16:12:00,
2013-09-14 12:18:00,91.9,64.2,29.53,ENE,67,0.0,0.0,40,0.00,,,0.00,WUHU21623XXSP,2013-09-14 16:18:00,
2013-09-14 12:23:00,92.8,65.0,29.54,ENE,67,0.0,0.0,40,0.00,,,0.00,WUHU21623XXSP,2013-09-14 16:23:00,
2013-09-14 12:28:00,93.4,64.7,29.54,East,90,0.0,0.0,39,0.00,,,0.00,WUHU21623XXSP,2013-09-14 16:28:00,
2013-09-14 12:33:00,94.8,65.1,29.54,ENE,67,0.0,0.0,38,0.00,,,0.00,WUHU21623XXSP,2013-09-14 16:33:00,
2013-09-14 12:39:00,95.4,65.6,29.53,ENE,67,0.0,0.0,38,0.00,,,0.00,WUHU21623XXSP,2013-09-14 16:39:00,
2013-09-14 12:45:00,95.7,65.1,29.53,ENE,67,0.0,0.0,37,0.00,,,0.00,WUHU21623XXSP,2013-09-14 16:45:00,
2013-09-14 12:50:00,95.2,64.6,29.53,East,90,0.0,0.0,37,0.00,,,0.00,WUHU21623XXSP,2013-09-14 16:50:00,
2013-09-14 12:55:00,95.4,64.8,29.53,East,90,0.0,0.0,37,0.00,,,0.00,WUHU21623XXSP,2013-09-14 16:55:00,
2013-09-14 13:10:00,94.3,64.7,29.53,East,90,0.0,0.0,38,0.00,,,0.00,WUHU21623XXSP,2013-09-14 17:10:00,
2013-09-14 20:33:00,71.4,60.7,29.56,ESE,112,0.0,0.0,69,0.00,,,0.00,WUHU21623XXSP,2013-09-15 00:33:00,
2013-09-14 20:34:00,71.4,60.7,29.56,ESE,112,0.0,0.0,69,0.00,,,0.00,WUHU21623XXSP,2013-09-15 00:34:00,
2013-09-14 23:50:00,66.0,60.0,29.61,ESE,112,0.0,0.0,81,0.00,,,0.00,WUHU21623XXSP,2013-09-15 03:50:00,